APJ108 RJCC-RJOO

Flight info

Callsign APJ108
Flight time N/A
Altitude 38000
Route DALBI Y120 TAPPI Y12 ARIKA Y14 GOLDO Y381 KMC Y384 ROKKO KAMEO OTABE ABENO IKOMA
Aircraft A20N/M-SDE2E3FGHIRWXY/LB1

Departure

Time 2026-05-08 08:02
Airport New Chitose Airport (RJCC)

Arrival

Time N/A
Airport Osaka Itami International Airport (RJOO)
Time Latitude Longitude Altitude Speed Heading
2026-05-08 07:43 42.79029 141.67827 68 ft 0 kts 173°
2026-05-08 07:56 42.79033 141.67827 65 ft 3 kts 173°
2026-05-08 07:56 42.79054 141.67823 64 ft 4 kts 172°
2026-05-08 07:56 42.79080 141.67818 69 ft 4 kts 168°
2026-05-08 07:57 42.79107 141.67809 61 ft 4 kts 159°
2026-05-08 07:57 42.79124 141.67797 65 ft 0 kts 146°
2026-05-08 07:59 42.79124 141.67798 65 ft 1 kts 146°
2026-05-08 07:59 42.79121 141.67808 65 ft 1 kts 98°
2026-05-08 07:59 42.79134 141.67877 66 ft 13 kts 84°
2026-05-08 08:00 42.79116 141.68031 73 ft 22 kts 108°
2026-05-08 08:00 42.79077 141.68215 73 ft 19 kts 72°
2026-05-08 08:00 42.79129 141.68359 69 ft 17 kts 108°
2026-05-08 08:00 42.79031 141.68478 65 ft 22 kts 149°
2026-05-08 08:01 42.78941 141.68618 66 ft 19 kts 83°
2026-05-08 08:01 42.78889 141.68751 74 ft 15 kts 141°
2026-05-08 08:01 42.78830 141.68816 70 ft 8 kts 161°
2026-05-08 08:01 42.78634 141.68852 87 ft 69 kts 172°
2026-05-08 08:02 42.77885 141.68983 67 ft 144 kts 172°
2026-05-08 08:02 42.76846 141.69166 877 ft 140 kts 173°
2026-05-08 08:02 42.75850 141.69357 1802 ft 149 kts 171°
2026-05-08 08:02 42.74785 141.69580 2500 ft 163 kts 171°
2026-05-08 08:03 42.73598 141.69830 3082 ft 181 kts 171°
2026-05-08 08:03 42.72285 141.70101 3638 ft 201 kts 171°
2026-05-08 08:03 42.70820 141.70398 4196 ft 224 kts 173°
2026-05-08 08:03 42.69203 141.70722 4833 ft 246 kts 173°
2026-05-08 08:04 42.67472 141.71068 5789 ft 255 kts 174°
2026-05-08 08:04 42.65724 141.71327 6831 ft 254 kts 185°
2026-05-08 08:04 42.64029 141.70763 7848 ft 254 kts 208°
2026-05-08 08:04 42.62653 141.69249 8817 ft 258 kts 231°
2026-05-08 08:05 42.61880 141.67044 9808 ft 266 kts 254°
2026-05-08 08:05 42.61551 141.64529 10619 ft 279 kts 257°
2026-05-08 08:05 42.61211 141.61825 11052 ft 302 kts 257°
2026-05-08 08:05 42.60838 141.58916 11547 ft 320 kts 257°
2026-05-08 08:06 42.60451 141.55912 12461 ft 325 kts 257°
2026-05-08 08:06 42.60055 141.52878 13479 ft 328 kts 257°
2026-05-08 08:06 42.59650 141.49807 14236 ft 334 kts 257°
2026-05-08 08:06 42.59238 141.46692 15054 ft 335 kts 256°
2026-05-08 08:07 42.58823 141.43569 15825 ft 338 kts 256°
2026-05-08 08:07 42.58401 141.40410 16600 ft 342 kts 256°
2026-05-08 08:07 42.57976 141.37225 17358 ft 345 kts 256°
2026-05-08 08:07 42.57544 141.34008 18096 ft 348 kts 256°
2026-05-08 08:08 42.57114 141.30809 18772 ft 350 kts 256°
2026-05-08 08:08 42.56568 141.27558 19485 ft 349 kts 250°
2026-05-08 08:08 42.55758 141.24495 20171 ft 349 kts 244°
2026-05-08 08:08 42.54762 141.21483 20821 ft 351 kts 243°
2026-05-08 08:09 42.53764 141.18446 21477 ft 353 kts 243°
2026-05-08 08:09 42.52766 141.15392 22170 ft 354 kts 243°
2026-05-08 08:09 42.51764 141.12323 22764 ft 358 kts 243°
2026-05-08 08:09 42.50753 141.09230 23382 ft 360 kts 243°
2026-05-08 08:10 42.49737 141.06122 24007 ft 359 kts 243°
2026-05-08 08:10 42.48729 141.03040 24753 ft 354 kts 242°
2026-05-08 08:10 42.47741 141.00023 25373 ft 353 kts 242°
2026-05-08 08:10 42.46742 140.96980 25959 ft 353 kts 242°
2026-05-08 08:11 42.45747 140.93952 26598 ft 351 kts 241°
2026-05-08 08:11 42.44756 140.90941 27226 ft 350 kts 241°
2026-05-08 08:11 42.43766 140.87934 27818 ft 349 kts 240°
2026-05-08 08:11 42.42775 140.84931 28357 ft 349 kts 240°
2026-05-08 08:12 42.41787 140.81942 28901 ft 348 kts 240°
2026-05-08 08:12 42.40798 140.78956 29395 ft 347 kts 239°
2026-05-08 08:12 42.39811 140.75978 29865 ft 347 kts 239°
2026-05-08 08:12 42.38817 140.72982 30201 ft 349 kts 239°
2026-05-08 08:13 42.37814 140.69985 30510 ft 351 kts 238°
2026-05-08 08:13 42.36589 140.67149 30845 ft 347 kts 231°
2026-05-08 08:13 42.35065 140.64647 31254 ft 344 kts 224°
2026-05-08 08:13 42.33289 140.62505 31698 ft 341 kts 218°
2026-05-08 08:14 42.31301 140.60758 32136 ft 341 kts 211°
2026-05-08 08:14 42.29131 140.59435 32557 ft 343 kts 204°
2026-05-08 08:14 42.26862 140.58531 32984 ft 344 kts 201°
2026-05-08 08:14 42.24555 140.57672 33401 ft 343 kts 201°
2026-05-08 08:15 42.22253 140.56803 33787 ft 341 kts 202°
2026-05-08 08:15 42.19962 140.55936 33942 ft 342 kts 202°
2026-05-08 08:15 42.17678 140.55074 33977 ft 341 kts 201°
2026-05-08 08:16 42.13110 140.53355 33978 ft 340 kts 201°
2026-05-08 08:16 42.08543 140.51640 33972 ft 341 kts 201°
2026-05-08 08:17 42.03972 140.49930 33971 ft 341 kts 202°
2026-05-08 08:17 41.99423 140.48230 33965 ft 340 kts 202°
2026-05-08 08:18 41.94849 140.46518 33973 ft 340 kts 201°
2026-05-08 08:18 41.90287 140.44813 33968 ft 340 kts 202°
2026-05-08 08:19 41.85726 140.43114 33973 ft 340 kts 201°
2026-05-08 08:19 41.81159 140.41414 33972 ft 340 kts 201°
2026-05-08 08:20 41.76628 140.39732 33968 ft 339 kts 201°
2026-05-08 08:20 41.72073 140.38041 33967 ft 340 kts 202°
2026-05-08 08:21 41.68260 140.36628 33965 ft 340 kts 202°
2026-05-08 08:21 41.63735 140.34954 33965 ft 339 kts 202°
2026-05-08 08:22 41.59191 140.33276 33950 ft 336 kts 202°
2026-05-08 08:22 41.54673 140.31607 33968 ft 339 kts 202°
2026-05-08 08:23 41.50119 140.29927 33967 ft 340 kts 202°
2026-05-08 08:23 41.45594 140.28264 33965 ft 339 kts 202°
2026-05-08 08:24 41.41039 140.26590 33969 ft 340 kts 202°
2026-05-08 08:24 41.36476 140.24917 33960 ft 339 kts 202°
2026-05-08 08:25 41.31939 140.23255 33950 ft 338 kts 202°
2026-05-08 08:25 41.27412 140.21599 33940 ft 336 kts 202°
2026-05-08 08:26 41.22852 140.19930 33957 ft 341 kts 202°
2026-05-08 08:26 41.18306 140.18272 33957 ft 341 kts 202°
2026-05-08 08:27 41.13722 140.16603 33956 ft 341 kts 202°
2026-05-08 08:27 41.09133 140.14987 33957 ft 342 kts 201°
2026-05-08 08:28 41.04521 140.13403 33957 ft 342 kts 201°
2026-05-08 08:28 40.99909 140.11813 33956 ft 342 kts 201°
2026-05-08 08:29 40.95296 140.10220 33951 ft 343 kts 201°
2026-05-08 08:29 40.90705 140.08636 33952 ft 343 kts 201°
2026-05-08 08:30 40.86080 140.07043 33955 ft 344 kts 201°
2026-05-08 08:30 40.79122 140.04650 33960 ft 345 kts 201°
2026-05-08 08:31 40.74468 140.03053 33963 ft 345 kts 201°
2026-05-08 08:31 40.69815 140.01460 33975 ft 346 kts 201°
2026-05-08 08:32 40.65180 139.99873 33965 ft 346 kts 201°
2026-05-08 08:32 40.60526 139.98284 33960 ft 345 kts 202°
2026-05-08 08:33 40.55871 139.96695 33962 ft 345 kts 202°
2026-05-08 08:33 40.51215 139.95109 33968 ft 346 kts 202°
2026-05-08 08:34 40.46568 139.93505 33959 ft 345 kts 204°
2026-05-08 08:34 40.42231 139.91347 33960 ft 341 kts 210°
2026-05-08 08:35 40.38058 139.88541 33973 ft 338 kts 212°
2026-05-08 08:35 40.33864 139.85702 33966 ft 339 kts 212°
2026-05-08 08:36 40.29664 139.82876 33967 ft 339 kts 212°
2026-05-08 08:36 40.25460 139.80052 33974 ft 340 kts 212°
2026-05-08 08:37 40.21282 139.77249 33971 ft 340 kts 212°
2026-05-08 08:37 40.17070 139.74428 33974 ft 340 kts 212°
2026-05-08 08:38 40.12854 139.71607 33974 ft 340 kts 212°
2026-05-08 08:38 40.08633 139.68787 33975 ft 340 kts 212°
2026-05-08 08:39 40.04415 139.65974 33971 ft 340 kts 212°
2026-05-08 08:39 40.00177 139.63211 33976 ft 341 kts 211°
2026-05-08 08:40 39.95957 139.60475 33975 ft 341 kts 211°
2026-05-08 08:40 39.91713 139.57719 33979 ft 341 kts 211°
2026-05-08 08:41 39.87467 139.54963 33974 ft 341 kts 212°
2026-05-08 08:41 39.83222 139.52212 33979 ft 341 kts 212°
2026-05-08 08:42 39.78971 139.49461 33976 ft 341 kts 212°
2026-05-08 08:42 39.74720 139.46713 33981 ft 341 kts 212°
2026-05-08 08:43 39.70499 139.43990 33982 ft 341 kts 212°
2026-05-08 08:43 39.66242 139.41246 33990 ft 341 kts 212°
2026-05-08 08:44 39.61981 139.38504 33987 ft 341 kts 212°
2026-05-08 08:44 39.57728 139.35771 33984 ft 341 kts 212°
2026-05-08 08:45 39.53479 139.33044 33986 ft 341 kts 212°
2026-05-08 08:45 39.49250 139.30334 33982 ft 341 kts 212°
2026-05-08 08:46 39.44990 139.27607 33987 ft 341 kts 212°
2026-05-08 08:46 39.40730 139.24884 33990 ft 342 kts 212°
2026-05-08 08:47 39.36461 139.22160 33986 ft 342 kts 212°
2026-05-08 08:47 39.32213 139.19452 33985 ft 342 kts 212°
2026-05-08 08:48 39.27934 139.16728 33991 ft 343 kts 212°
2026-05-08 08:48 39.23641 139.13999 33996 ft 343 kts 212°
2026-05-08 08:49 39.19347 139.11274 34003 ft 344 kts 212°
2026-05-08 08:49 39.15078 139.08568 34009 ft 344 kts 212°
2026-05-08 08:50 39.10774 139.05843 34011 ft 344 kts 212°
2026-05-08 08:50 39.06467 139.03121 34012 ft 344 kts 212°
2026-05-08 08:51 39.02165 139.00405 34015 ft 344 kts 212°
2026-05-08 08:51 38.97866 138.97694 34012 ft 344 kts 212°
2026-05-08 08:52 38.93563 138.94986 34018 ft 344 kts 213°
2026-05-08 08:52 38.89265 138.92284 34012 ft 344 kts 213°
2026-05-08 08:53 38.84969 138.89586 34011 ft 343 kts 213°
2026-05-08 08:53 38.80706 138.86913 34014 ft 343 kts 213°
2026-05-08 08:54 38.76415 138.84226 34014 ft 343 kts 213°
2026-05-08 08:54 38.72123 138.81542 34011 ft 343 kts 213°
2026-05-08 08:55 38.67831 138.78861 34014 ft 343 kts 213°
2026-05-08 08:55 38.63560 138.76197 34014 ft 343 kts 213°
2026-05-08 08:56 38.59259 138.73518 34008 ft 343 kts 213°
2026-05-08 08:56 38.54953 138.70839 34011 ft 344 kts 213°
2026-05-08 08:57 38.50673 138.68180 34022 ft 344 kts 213°
2026-05-08 08:57 38.46349 138.65498 34019 ft 345 kts 213°
2026-05-08 08:58 38.42027 138.62820 34017 ft 346 kts 213°
2026-05-08 08:58 38.37713 138.60151 34018 ft 347 kts 213°
2026-05-08 08:59 38.33359 138.57461 34025 ft 348 kts 213°
2026-05-08 08:59 38.28997 138.54769 34033 ft 349 kts 213°
2026-05-08 09:00 38.24625 138.52075 34040 ft 350 kts 213°
2026-05-08 09:00 38.20251 138.49383 34040 ft 350 kts 213°
2026-05-08 09:01 38.15869 138.46691 34044 ft 349 kts 213°
2026-05-08 09:01 38.11487 138.44000 34046 ft 350 kts 213°
2026-05-08 09:02 38.07294 138.41021 34046 ft 345 kts 219°
2026-05-08 09:02 38.03560 138.37273 34051 ft 341 kts 226°
2026-05-08 09:03 38.00177 138.33069 34055 ft 340 kts 227°
2026-05-08 09:03 37.96796 138.28871 34062 ft 340 kts 227°
2026-05-08 09:04 37.93414 138.24690 34061 ft 340 kts 227°
2026-05-08 09:04 37.90025 138.20508 34059 ft 340 kts 227°
2026-05-08 09:05 37.86637 138.16333 34072 ft 340 kts 227°
2026-05-08 09:05 37.83272 138.12191 34079 ft 340 kts 227°
2026-05-08 09:06 37.79882 138.08025 34082 ft 339 kts 227°
2026-05-08 09:06 37.76495 138.03867 34068 ft 339 kts 227°
2026-05-08 09:07 37.73104 137.99711 34072 ft 339 kts 227°
2026-05-08 09:07 37.69712 137.95559 34074 ft 339 kts 227°
2026-05-08 09:08 37.66895 137.92114 34076 ft 339 kts 227°
2026-05-08 09:08 37.63511 137.87980 34072 ft 339 kts 227°
2026-05-08 09:09 37.60122 137.83848 34075 ft 339 kts 227°
2026-05-08 09:09 37.56728 137.79714 34075 ft 339 kts 228°
2026-05-08 09:10 37.53337 137.75589 34081 ft 339 kts 228°
2026-05-08 09:10 37.49960 137.71488 34092 ft 339 kts 228°
2026-05-08 09:11 37.46560 137.67364 34091 ft 339 kts 228°
2026-05-08 09:11 37.43158 137.63242 34096 ft 339 kts 228°
2026-05-08 09:12 37.39753 137.59123 34101 ft 339 kts 228°
2026-05-08 09:12 37.36339 137.54997 34104 ft 339 kts 228°
2026-05-08 09:13 37.32928 137.50882 34105 ft 339 kts 228°
2026-05-08 09:13 37.29544 137.46804 34113 ft 339 kts 228°
2026-05-08 09:14 37.26139 137.42706 34117 ft 339 kts 228°
2026-05-08 09:14 37.22734 137.38614 34117 ft 338 kts 228°
2026-05-08 09:15 37.19328 137.34525 34113 ft 338 kts 228°
2026-05-08 09:15 37.15943 137.30468 34109 ft 337 kts 228°
2026-05-08 09:16 37.12550 137.26406 34110 ft 337 kts 228°
2026-05-08 09:16 37.09154 137.22346 34109 ft 337 kts 228°
2026-05-08 09:17 37.05758 137.18290 34108 ft 337 kts 228°
2026-05-08 09:17 37.02366 137.14245 34107 ft 337 kts 228°
2026-05-08 09:18 36.98965 137.10194 34114 ft 338 kts 228°
2026-05-08 09:18 36.95579 137.06167 34126 ft 338 kts 228°
2026-05-08 09:19 36.92162 137.02109 34130 ft 339 kts 228°
2026-05-08 09:19 36.88734 136.98041 34140 ft 340 kts 228°
2026-05-08 09:20 36.85301 136.93973 34137 ft 340 kts 228°
2026-05-08 09:20 36.81884 136.89928 34141 ft 341 kts 228°
2026-05-08 09:21 36.78436 136.85860 34137 ft 340 kts 228°
2026-05-08 09:23 36.66339 136.71623 34160 ft 343 kts 228°
2026-05-08 09:23 36.62874 136.67556 34167 ft 343 kts 228°
2026-05-08 09:24 36.59412 136.63501 34167 ft 341 kts 229°
2026-05-08 09:24 36.55947 136.59444 34180 ft 341 kts 229°
2026-05-08 09:25 36.52488 136.55400 34185 ft 341 kts 229°
2026-05-08 09:25 36.49054 136.51391 34193 ft 340 kts 229°
2026-05-08 09:26 36.45606 136.47370 34194 ft 340 kts 229°
2026-05-08 09:26 36.42152 136.43348 34191 ft 339 kts 229°
2026-05-08 09:27 36.38576 136.39487 34186 ft 343 kts 224°
2026-05-08 09:27 36.34664 136.36045 34180 ft 344 kts 223°
2026-05-08 09:28 36.30780 136.32638 34177 ft 344 kts 223°
2026-05-08 09:28 36.26871 136.29206 34174 ft 344 kts 223°
2026-05-08 09:29 36.22946 136.25766 34172 ft 345 kts 223°
2026-05-08 09:29 36.19044 136.22350 34175 ft 346 kts 223°
2026-05-08 09:30 36.15112 136.18913 34175 ft 346 kts 223°
2026-05-08 09:30 36.11175 136.15476 34178 ft 347 kts 223°
2026-05-08 09:31 36.07221 136.12029 34190 ft 348 kts 223°
2026-05-08 09:31 36.03263 136.08583 34191 ft 348 kts 223°
2026-05-08 09:32 35.99297 136.05134 34199 ft 348 kts 223°
2026-05-08 09:32 35.95338 136.01695 34188 ft 348 kts 223°
2026-05-08 09:33 35.91400 135.98279 34190 ft 348 kts 223°
2026-05-08 09:33 35.87431 135.94842 34187 ft 349 kts 223°
2026-05-08 09:34 35.83457 135.91404 34187 ft 349 kts 223°
2026-05-08 09:34 35.79477 135.87963 34186 ft 349 kts 223°
2026-05-08 09:35 35.75487 135.84520 34188 ft 350 kts 223°
2026-05-08 09:35 35.71493 135.81077 34193 ft 350 kts 223°
2026-05-08 09:36 35.67495 135.77635 34193 ft 351 kts 223°
2026-05-08 09:36 35.63493 135.74194 34196 ft 351 kts 223°
2026-05-08 09:37 35.59511 135.70774 34197 ft 351 kts 223°
2026-05-08 09:37 35.55499 135.67333 34194 ft 352 kts 223°
2026-05-08 09:38 35.51493 135.63902 33873 ft 350 kts 223°
2026-05-08 09:38 35.49485 135.62182 33047 ft 354 kts 223°
2026-05-08 09:38 35.47453 135.60441 31999 ft 359 kts 223°
2026-05-08 09:38 35.45364 135.58647 30687 ft 372 kts 223°
2026-05-08 09:39 35.43226 135.56818 29497 ft 377 kts 223°
2026-05-08 09:39 35.41091 135.55001 28600 ft 375 kts 222°
2026-05-08 09:39 35.38962 135.53196 28014 ft 367 kts 223°
2026-05-08 09:39 35.36894 135.51448 27680 ft 354 kts 223°
2026-05-08 09:40 35.34883 135.49742 27110 ft 348 kts 223°
2026-05-08 09:40 35.32907 135.48057 26471 ft 345 kts 223°
2026-05-08 09:40 35.30947 135.46386 25841 ft 342 kts 223°
2026-05-08 09:40 35.28994 135.44719 25212 ft 340 kts 223°
2026-05-08 09:41 35.27053 135.43067 24590 ft 339 kts 223°
2026-05-08 09:41 35.25121 135.41424 23943 ft 338 kts 223°
2026-05-08 09:41 35.23213 135.39803 23254 ft 338 kts 223°
2026-05-08 09:41 35.21296 135.38178 22657 ft 333 kts 223°
2026-05-08 09:42 35.19398 135.36573 22032 ft 330 kts 223°
2026-05-08 09:42 35.17514 135.34975 21400 ft 327 kts 223°
2026-05-08 09:42 35.15522 135.33592 20772 ft 335 kts 212°
2026-05-08 09:42 35.13212 135.32841 20078 ft 353 kts 197°
2026-05-08 09:43 35.10692 135.32884 19329 ft 376 kts 181°
2026-05-08 09:43 35.08123 135.33870 18549 ft 401 kts 164°
2026-05-08 09:43 35.05773 135.35724 17692 ft 421 kts 151°
2026-05-08 09:43 35.03530 135.37983 16879 ft 425 kts 148°
2026-05-08 09:44 35.01284 135.40344 16036 ft 426 kts 147°
2026-05-08 09:44 34.99063 135.42671 15527 ft 417 kts 147°
2026-05-08 09:44 34.96869 135.44936 14973 ft 410 kts 147°
2026-05-08 09:44 34.94693 135.47150 14367 ft 405 kts 148°
2026-05-08 09:45 34.92530 135.49333 13781 ft 401 kts 148°
2026-05-08 09:45 34.90388 135.51485 13170 ft 396 kts 147°
2026-05-08 09:45 34.88270 135.53609 12523 ft 392 kts 147°
2026-05-08 09:45 34.86177 135.55706 11895 ft 388 kts 147°
2026-05-08 09:46 34.84125 135.57762 11301 ft 384 kts 147°
2026-05-08 09:46 34.82069 135.59822 10738 ft 380 kts 146°
2026-05-08 09:46 34.80072 135.61827 10542 ft 365 kts 146°
2026-05-08 09:46 34.78154 135.63756 10398 ft 350 kts 147°
2026-05-08 09:47 34.76313 135.65606 10265 ft 336 kts 147°
2026-05-08 09:47 34.74543 135.67381 10141 ft 322 kts 147°
2026-05-08 09:47 34.72841 135.69085 9937 ft 313 kts 147°
2026-05-08 09:47 34.71168 135.70750 9569 ft 309 kts 147°
2026-05-08 09:48 34.69507 135.72400 9085 ft 307 kts 147°
2026-05-08 09:48 34.67823 135.73982 8637 ft 301 kts 156°
2026-05-08 09:48 34.65907 135.74771 8144 ft 286 kts 181°
2026-05-08 09:48 34.64049 135.74451 7916 ft 263 kts 209°
2026-05-08 09:49 34.62613 135.73276 7768 ft 239 kts 225°
2026-05-08 09:49 34.61386 135.72026 7594 ft 222 kts 225°
2026-05-08 09:49 34.60284 135.70792 6869 ft 213 kts 238°
2026-05-08 09:49 34.59731 135.69164 6022 ft 208 kts 265°
2026-05-08 09:50 34.59891 135.67439 5143 ft 207 kts 289°
2026-05-08 09:50 34.60426 135.65826 4332 ft 205 kts 298°
2026-05-08 09:50 34.61254 135.64459 3930 ft 198 kts 311°
2026-05-08 09:50 34.62255 135.63232 3842 ft 205 kts 314°
2026-05-08 09:51 34.63273 135.62019 3692 ft 205 kts 314°
2026-05-08 09:51 34.64285 135.60797 3473 ft 205 kts 314°
2026-05-08 09:51 34.65291 135.59585 3228 ft 203 kts 315°
2026-05-08 09:51 34.66284 135.58388 2978 ft 199 kts 315°
2026-05-08 09:52 34.67228 135.57249 2713 ft 183 kts 315°
2026-05-08 09:52 34.68094 135.56204 2475 ft 168 kts 316°
2026-05-08 09:52 34.68890 135.55242 2258 ft 154 kts 317°
2026-05-08 09:52 34.69642 135.54336 2093 ft 148 kts 317°
2026-05-08 09:53 34.70338 135.53495 1900 ft 134 kts 316°
2026-05-08 09:53 34.70949 135.52757 1726 ft 118 kts 316°
2026-05-08 09:53 34.71501 135.52092 1577 ft 110 kts 317°
2026-05-08 09:53 34.72085 135.51390 1411 ft 131 kts 317°
2026-05-08 09:54 34.72769 135.50549 1228 ft 136 kts 317°
2026-05-08 09:54 34.73407 135.49720 1102 ft 131 kts 318°
2026-05-08 09:54 34.74046 135.48957 951 ft 124 kts 320°
2026-05-08 09:54 34.74665 135.48247 807 ft 120 kts 317°
2026-05-08 09:55 34.75237 135.47543 613 ft 118 kts 318°
2026-05-08 09:55 34.75628 135.47064 521 ft 123 kts 318°
2026-05-08 09:55 34.76252 135.46342 372 ft 126 kts 319°
2026-05-08 09:55 34.76881 135.45581 190 ft 124 kts 318°
2026-05-08 09:56 34.77651 135.44663 72 ft 115 kts 319°
2026-05-08 09:56 34.78079 135.44140 239 ft 143 kts 318°
2026-05-08 09:56 34.78687 135.43152 1085 ft 153 kts 287°
2026-05-08 09:56 34.78458 135.41838 1987 ft 181 kts 238°
2026-05-08 09:57 34.75726 135.41088 3498 ft 229 kts 181°
2026-05-08 09:57 34.74083 135.41087 4315 ft 243 kts 185°
2026-05-08 09:57 34.72333 135.41070 5052 ft 260 kts 184°
2026-05-08 09:58 34.70480 135.41092 5215 ft 278 kts 182°
2026-05-08 09:58 34.68520 135.41166 5188 ft 282 kts 181°
2026-05-08 09:58 34.66576 135.41272 5122 ft 276 kts 181°
2026-05-08 09:58 34.64669 135.41386 5009 ft 273 kts 181°
2026-05-08 09:59 34.62758 135.41498 5007 ft 276 kts 181°
2026-05-08 09:59 34.60839 135.41607 5010 ft 275 kts 181°
2026-05-08 09:59 34.58917 135.41716 5010 ft 276 kts 181°
2026-05-08 09:59 34.56994 135.41824 5013 ft 277 kts 181°
2026-05-08 10:00 34.55093 135.41931 5002 ft 277 kts 181°
2026-05-08 10:00 34.53156 135.42038 5007 ft 279 kts 181°
2026-05-08 10:00 34.51213 135.42146 5012 ft 280 kts 181°
2026-05-08 10:00 34.49264 135.42254 5023 ft 280 kts 181°
2026-05-08 10:01 34.47311 135.42363 5024 ft 281 kts 181°
2026-05-08 10:01 34.45357 135.42472 5035 ft 280 kts 181°
2026-05-08 10:01 34.43412 135.42500 5025 ft 277 kts 191°
2026-05-08 10:01 34.41574 135.41873 5032 ft 273 kts 203°
2026-05-08 10:02 34.39778 135.41120 5038 ft 273 kts 203°
2026-05-08 10:02 34.38008 135.40377 5032 ft 273 kts 203°
2026-05-08 10:02 34.36190 135.39614 5036 ft 273 kts 204°
2026-05-08 10:02 34.34420 135.38875 5035 ft 273 kts 203°
2026-05-08 10:03 34.32625 135.38129 5028 ft 273 kts 204°
2026-05-08 10:03 34.30830 135.37375 5034 ft 272 kts 206°
2026-05-08 10:03 34.29311 135.36131 5022 ft 261 kts 233°
2026-05-08 10:03 34.28490 135.34216 5033 ft 258 kts 261°
2026-05-08 10:04 34.28535 135.32093 5030 ft 251 kts 289°
2026-05-08 10:04 34.29428 135.30320 5030 ft 250 kts 316°
2026-05-08 10:04 34.30956 135.29316 5040 ft 257 kts 343°
2026-05-08 10:04 34.32754 135.29341 5034 ft 265 kts 12°
2026-05-08 10:05 34.34381 135.30435 5032 ft 275 kts 39°
2026-05-08 10:05 34.35536 135.32272 5023 ft 280 kts 49°
2026-05-08 10:05 34.36896 135.33912 5032 ft 274 kts 36°
2026-05-08 10:05 34.38372 135.35364 5032 ft 273 kts 36°
2026-05-08 10:06 34.39804 135.36891 5032 ft 275 kts 39°
2026-05-08 10:06 34.41165 135.38534 5033 ft 276 kts 42°
2026-05-08 10:06 34.42470 135.40248 5033 ft 277 kts 44°
2026-05-08 10:06 34.43749 135.42002 5033 ft 279 kts 45°
2026-05-08 10:07 34.44851 135.43933 5036 ft 282 kts 64°
2026-05-08 10:07 34.45210 135.46248 5011 ft 287 kts 91°
2026-05-08 10:07 34.44684 135.48577 5014 ft 291 kts 120°
2026-05-08 10:07 34.43371 135.50399 5014 ft 288 kts 147°
2026-05-08 10:08 34.41560 135.51318 5017 ft 281 kts 175°
2026-05-08 10:08 34.39661 135.51172 5016 ft 272 kts 202°
2026-05-08 10:08 34.38038 135.50108 5032 ft 263 kts 225°
2026-05-08 10:08 34.36805 135.48475 5037 ft 262 kts 234°
2026-05-08 10:09 34.36025 135.47363 5030 ft 262 kts 233°
2026-05-08 10:09 34.34440 135.45126 5042 ft 258 kts 233°
2026-05-08 10:09 34.31928 135.41626 5031 ft 261 kts 233°
2026-05-08 10:10 34.30732 135.39971 5029 ft 262 kts 233°
2026-05-08 10:10 34.29769 135.38127 5032 ft 258 kts 253°
2026-05-08 10:10 34.29473 135.36021 5031 ft 253 kts 275°
2026-05-08 10:10 34.29878 135.33989 5038 ft 249 kts 296°
2026-05-08 10:11 34.30903 135.32304 5033 ft 252 kts 317°
2026-05-08 10:11 34.32414 135.31222 5031 ft 257 kts 339°
2026-05-08 10:11 34.34195 135.30951 5029 ft 263 kts
2026-05-08 10:11 34.35961 135.31596 5029 ft 272 kts 26°
2026-05-08 10:12 34.37403 135.33102 5032 ft 278 kts 45°
2026-05-08 10:12 34.38666 135.34884 5031 ft 277 kts 46°
2026-05-08 10:12 34.39915 135.36657 5030 ft 277 kts 46°
2026-05-08 10:12 34.41171 135.38430 5030 ft 278 kts 46°
2026-05-08 10:13 34.42422 135.40184 5031 ft 277 kts 46°
2026-05-08 10:13 34.43686 135.41947 5034 ft 277 kts 46°
2026-05-08 10:13 34.44996 135.43659 5030 ft 275 kts 35°
2026-05-08 10:13 34.46593 135.44900 5027 ft 274 kts 34°
2026-05-08 10:14 34.47914 135.46598 5030 ft 280 kts 50°
2026-05-08 10:14 34.49037 135.48516 4933 ft 277 kts 52°
2026-05-08 10:14 34.50120 135.50380 4812 ft 262 kts 51°
2026-05-08 10:14 34.51193 135.52110 4482 ft 254 kts 49°
2026-05-08 10:15 34.52294 135.53770 4080 ft 253 kts 47°
2026-05-08 10:15 34.53423 135.55407 3700 ft 253 kts 46°
2026-05-08 10:15 34.54547 135.57008 3552 ft 244 kts 46°
2026-05-08 10:15 34.55619 135.58532 3532 ft 231 kts 46°
2026-05-08 10:16 34.56663 135.60009 3533 ft 239 kts 46°
2026-05-08 10:16 34.57738 135.61531 3533 ft 232 kts 46°
2026-05-08 10:16 34.58760 135.62978 3531 ft 221 kts 43°
2026-05-08 10:16 34.60083 135.63845 3537 ft 219 kts
2026-05-08 10:17 34.61532 135.63534 3531 ft 210 kts 332°
2026-05-08 10:17 34.62729 135.62585 3537 ft 209 kts 318°
2026-05-08 10:17 34.63768 135.61427 3526 ft 197 kts 314°
2026-05-08 10:17 34.64745 135.60239 3415 ft 199 kts 314°
2026-05-08 10:18 34.65721 135.59066 3155 ft 196 kts 314°
2026-05-08 10:18 34.66670 135.57921 2882 ft 186 kts 314°
2026-05-08 10:18 34.67557 135.56851 2641 ft 173 kts 315°
2026-05-08 10:18 34.68369 135.55870 2431 ft 155 kts 315°
2026-05-08 10:19 34.69100 135.54990 2224 ft 141 kts 315°
2026-05-08 10:19 34.69767 135.54187 2043 ft 129 kts 315°
2026-05-08 10:19 34.70384 135.53441 1903 ft 124 kts 315°
2026-05-08 10:20 34.71647 135.51916 1583 ft 127 kts 316°
2026-05-08 10:20 34.72257 135.51180 1399 ft 122 kts 316°
2026-05-08 10:20 34.72848 135.50466 1242 ft 121 kts 315°